| time (UTC) | temp F | wind direction | speed MPH | gust MPH | rain 1hr in | rain 24hr in | rain mn in | humidity % | barometer mb |
| 20260507040540 | 49 | 0 | 0.0 | 2.0 | 0.00 | 0.00 | 0.00 | 49 | 1008.9 |
| 20260507040058 | 49 | 76 | 0.0 | 2.0 | 0.00 | 0.00 | 0.00 | 48 | 1008.7 |
| 20260507035538 | 50 | 71 | 1.0 | 4.0 | 0.00 | 0.00 | 0.00 | 47 | 1008.6 |
| 20260507035041 | 50 | 62 | 1.0 | 4.0 | 0.00 | 0.00 | 0.00 | 46 | 1008.6 |
| 20260507034551 | 51 | 55 | 2.0 | 4.0 | 0.00 | 0.00 | 0.00 | 46 | 1008.5 |
| 20260507034040 | 51 | 79 | 2.0 | 6.0 | 0.00 | 0.00 | 0.00 | 45 | 1008.3 |
| 20260507033539 | 52 | 96 | 2.0 | 6.0 | 0.00 | 0.00 | 0.00 | 44 | 1008.1 |
| 20260507033049 | 53 | 87 | 2.0 | 6.0 | 0.00 | 0.00 | 0.00 | 43 | 1008.0 |
| 20260507032538 | 53 | 67 | 2.0 | 6.0 | 0.00 | 0.00 | 0.00 | 42 | 1008.1 |
| 20260507032038 | 54 | 90 | 3.0 | 7.0 | 0.00 | 0.00 | 0.00 | 41 | 1007.9 |
| 20260507031554 | 55 | 69 | 3.0 | 8.0 | 0.00 | 0.00 | 0.00 | 40 | 1007.8 |
| 20260507031043 | 56 | 70 | 3.0 | 8.0 | 0.00 | 0.00 | 0.00 | 40 | 1007.8 |
| 20260507030540 | 56 | 78 | 4.0 | 8.0 | 0.00 | 0.00 | 0.00 | 39 | 1007.7 |
| 20260507030052 | 57 | 63 | 4.0 | 7.0 | 0.00 | 0.00 | 0.00 | 38 | 1007.6 |
| 20260507025540 | 57 | 40 | 4.0 | 6.0 | 0.00 | 0.00 | 0.00 | 37 | 1007.5 |
| 20260507025039 | 58 | 66 | 3.0 | 11.0 | 0.00 | 0.00 | 0.00 | 37 | 1007.4 |
| 20260507024552 | 58 | 66 | 5.0 | 14.0 | 0.00 | 0.00 | 0.00 | 36 | 1007.3 |
| 20260507024038 | 59 | 67 | 5.0 | 14.0 | 0.00 | 0.00 | 0.00 | 36 | 1007.3 |
| 20260507023543 | 60 | 67 | 8.0 | 16.0 | 0.00 | 0.00 | 0.00 | 35 | 1007.2 |
| 20260507023052 | 60 | 69 | 9.0 | 16.0 | 0.00 | 0.00 | 0.00 | 34 | 1007.2 |
| 20260507022540 | 60 | 65 | 8.0 | 16.0 | 0.00 | 0.00 | 0.00 | 33 | 1007.1 |
| 20260507022038 | 61 | 74 | 8.0 | 15.0 | 0.00 | 0.00 | 0.00 | 33 | 1007.0 |
| 20260507021559 | 61 | 72 | 9.0 | 14.0 | 0.00 | 0.00 | 0.00 | 33 | 1006.9 |
| 20260507021037 | 62 | 59 | 9.0 | 15.0 | 0.00 | 0.00 | 0.00 | 31 | 1007.0 |
| 20260507020540 | 62 | 57 | 10.0 | 20.0 | 0.00 | 0.00 | 0.00 | 30 | 1006.9 |
| 20260507020053 | 62 | 74 | 13.0 | 20.0 | 0.00 | 0.00 | 0.00 | 29 | 1006.9 |
| 20260507015541 | 63 | 67 | 11.0 | 16.0 | 0.00 | 0.00 | 0.00 | 28 | 1006.8 |
| 20260507015039 | 63 | 24 | 8.0 | 16.0 | 0.00 | 0.00 | 0.00 | 30 | 1006.8 |
| 20260507014549 | 64 | 42 | 9.0 | 16.0 | 0.00 | 0.00 | 0.00 | 29 | 1006.8 |
| 20260507014040 | 64 | 17 | 5.0 | 10.0 | 0.00 | 0.00 | 0.00 | 31 | 1006.7 |
| 20260507013541 | 64 | 30 | 3.0 | 9.0 | 0.00 | 0.00 | 0.00 | 31 | 1006.7 |
| 20260507013048 | 64 | 47 | 4.0 | 10.0 | 0.00 | 0.00 | 0.00 | 30 | 1006.6 |
| 20260507012543 | 64 | 26 | 4.0 | 12.0 | 0.00 | 0.00 | 0.00 | 30 | 1006.7 |
| 20260507012040 | 64 | 38 | 5.0 | 12.0 | 0.00 | 0.00 | 0.00 | 30 | 1006.7 |
| 20260507011549 | 64 | 5 | 7.0 | 18.0 | 0.00 | 0.00 | 0.00 | 31 | 1006.8 |
| 20260507011039 | 65 | 26 | 7.0 | 18.0 | 0.00 | 0.00 | 0.00 | 30 | 1006.7 |
| 20260507010542 | 65 | 11 | 11.0 | 18.0 | 0.00 | 0.00 | 0.00 | 30 | 1006.8 |
| 20260507010050 | 66 | 352 | 7.0 | 16.0 | 0.00 | 0.00 | 0.00 | 29 | 1006.7 |
| 20260507005539 | 66 | 323 | 3.0 | 8.0 | 0.00 | 0.00 | 0.00 | 27 | 1006.7 |
| 20260507005041 | 66 | 325 | 4.0 | 9.0 | 0.00 | 0.00 | 0.00 | 27 | 1006.7 |
| 20260507004554 | 66 | 346 | 3.0 | 14.0 | 0.00 | 0.00 | 0.00 | 28 | 1006.8 |
| 20260507004040 | 66 | 333 | 4.0 | 14.0 | 0.00 | 0.00 | 0.00 | 27 | 1006.9 |
| 20260507003539 | 66 | 333 | 6.0 | 14.0 | 0.00 | 0.00 | 0.00 | 28 | 1007.0 |
| 20260507003054 | 66 | 319 | 6.0 | 13.0 | 0.00 | 0.00 | 0.00 | 27 | 1006.9 |
| 20260507002540 | 67 | 322 | 5.0 | 12.0 | 0.00 | 0.00 | 0.00 | 26 | 1006.7 |
| 20260507002040 | 67 | 344 | 6.0 | 12.0 | 0.00 | 0.00 | 0.00 | 25 | 1006.6 |
| 20260507001548 | 67 | 352 | 7.0 | 14.0 | 0.00 | 0.00 | 0.00 | 25 | 1006.5 |
| 20260507001101 | 67 | 344 | 6.0 | 14.0 | 0.00 | 0.00 | 0.00 | 25 | 1006.4 |
| 20260507000539 | 67 | 352 | 7.0 | 13.0 | 0.00 | 0.00 | 0.00 | 25 | 1006.2 |
| 20260507000048 | 67 | 23 | 8.0 | 14.0 | 0.00 | 0.00 | 0.00 | 26 | 1006.0 |
| 20260506235539 | 68 | 45 | 7.0 | 14.0 | 0.00 | 0.00 | 0.00 | 26 | 1005.8 |
| 20260506235038 | 68 | 59 | 5.0 | 11.0 | 0.00 | 0.00 | 0.00 | 25 | 1005.7 |
| 20260506234557 | 68 | 50 | 5.0 | 12.0 | 0.00 | 0.00 | 0.00 | 25 | 1005.7 |
| 20260506234038 | 68 | 40 | 7.0 | 12.0 | 0.00 | 0.00 | 0.00 | 25 | 1005.7 |
| 20260506233539 | 68 | 24 | 6.0 | 13.0 | 0.00 | 0.00 | 0.00 | 25 | 1005.7 |
| 20260506233052 | 68 | 14 | 5.0 | 13.0 | 0.00 | 0.00 | 0.00 | 25 | 1005.7 |
| 20260506232542 | 68 | 49 | 6.0 | 13.0 | 0.00 | 0.00 | 0.00 | 26 | 1005.8 |
| 20260506232039 | 68 | 352 | 7.0 | 13.0 | 0.00 | 0.00 | 0.00 | 25 | 1005.8 |
| 20260506231549 | 68 | 323 | 8.0 | 13.0 | 0.00 | 0.00 | 0.00 | 25 | 1005.8 |
| 20260506231040 | 68 | 19 | 5.0 | 15.0 | 0.00 | 0.00 | 0.00 | 25 | 1005.9 |
| 20260506230539 | 69 | 360 | 7.0 | 15.0 | 0.00 | 0.00 | 0.00 | 25 | 1005.9 |
| 20260506230057 | 68 | 42 | 6.0 | 10.0 | 0.00 | 0.00 | 0.00 | 26 | 1005.9 |
| 20260506225540 | 68 | 69 | 3.0 | 12.0 | 0.00 | 0.00 | 0.00 | 27 | 1005.9 |
| 20260506225040 | 68 | 66 | 4.0 | 12.0 | 0.00 | 0.00 | 0.00 | 25 | 1005.9 |
| 20260506224548 | 69 | 352 | 6.0 | 12.0 | 0.00 | 0.00 | 0.00 | 25 | 1006.1 |
| 20260506224039 | 69 | 58 | 3.0 | 15.0 | 0.00 | 0.00 | 0.00 | 26 | 1006.0 |
| 20260506223539 | 69 | 32 | 6.0 | 15.0 | 0.00 | 0.00 | 0.00 | 24 | 1006.0 |
| 20260506223056 | 69 | 42 | 4.0 | 11.0 | 0.00 | 0.00 | 0.00 | 24 | 1006.0 |
| 20260506222540 | 69 | 30 | 4.0 | 10.0 | 0.00 | 0.00 | 0.00 | 24 | 1006.0 |
| 20260506222043 | 69 | 15 | 4.0 | 13.0 | 0.00 | 0.00 | 0.00 | 26 | 1006.0 |
| 20260506221547 | 69 | 17 | 6.0 | 13.0 | 0.00 | 0.00 | 0.00 | 24 | 1006.0 |
| 20260506221042 | 69 | 355 | 7.0 | 13.0 | 0.00 | 0.00 | 0.00 | 26 | 1006.2 |
| 20260506220539 | 69 | 350 | 2.0 | 11.0 | 0.00 | 0.00 | 0.00 | 27 | 1006.2 |
| 20260506220054 | 69 | 31 | 5.0 | 9.0 | 0.00 | 0.00 | 0.00 | 26 | 1006.3 |
| 20260506215539 | 69 | 65 | 3.0 | 13.0 | 0.00 | 0.00 | 0.00 | 27 | 1006.2 |
| 20260506215040 | 68 | 29 | 4.0 | 13.0 | 0.00 | 0.00 | 0.00 | 25 | 1006.2 |
| 20260506214547 | 68 | 44 | 6.0 | 13.0 | 0.00 | 0.00 | 0.00 | 24 | 1006.3 |
| 20260506214040 | 69 | 30 | 5.0 | 12.0 | 0.00 | 0.00 | 0.00 | 24 | 1006.3 |
| 20260506213539 | 68 | 19 | 6.0 | 12.0 | 0.00 | 0.00 | 0.00 | 26 | 1006.3 |
| 20260506213053 | 69 | 41 | 5.0 | 13.0 | 0.00 | 0.00 | 0.00 | 26 | 1006.4 |
| 20260506212541 | 69 | 64 | 8.0 | 13.0 | 0.00 | 0.00 | 0.00 | 24 | 1006.5 |
| 20260506212040 | 69 | 35 | 5.0 | 14.0 | 0.00 | 0.00 | 0.00 | 25 | 1006.5 |
| 20260506211549 | 69 | 30 | 6.0 | 14.0 | 0.00 | 0.00 | 0.00 | 24 | 1006.4 |
| 20260506211039 | 70 | 33 | 8.0 | 13.0 | 0.00 | 0.00 | 0.00 | 25 | 1006.5 |
| 20260506210540 | 70 | 58 | 5.0 | 19.0 | 0.00 | 0.00 | 0.00 | 27 | 1006.6 |
| 20260506210054 | 70 | 5 | 6.0 | 19.0 | 0.00 | 0.00 | 0.00 | 26 | 1006.6 |
| 20260506205539 | 69 | 31 | 9.0 | 18.0 | 0.00 | 0.00 | 0.00 | 24 | 1006.5 |
| 20260506205039 | 69 | 48 | 8.0 | 25.0 | 0.00 | 0.00 | 0.00 | 24 | 1006.6 |
| 20260506204556 | 68 | 11 | 9.0 | 25.0 | 0.00 | 0.00 | 0.00 | 25 | 1006.5 |
| 20260506204040 | 68 | 86 | 4.0 | 12.0 | 0.00 | 0.00 | 0.00 | 27 | 1006.6 |
| 20260506203540 | 69 | 96 | 6.0 | 16.0 | 0.00 | 0.00 | 0.00 | 24 | 1006.6 |
| 20260506203052 | 70 | 15 | 8.0 | 16.0 | 0.00 | 0.00 | 0.00 | 23 | 1006.8 |
| 20260506202540 | 71 | 30 | 6.0 | 10.0 | 0.00 | 0.00 | 0.00 | 24 | 1006.7 |
| 20260506202039 | 71 | 94 | 2.0 | 9.0 | 0.00 | 0.00 | 0.00 | 24 | 1006.8 |
| 20260506201553 | 71 | 316 | 3.0 | 8.0 | 0.00 | 0.00 | 0.00 | 23 | 1006.8 |
| 20260506201040 | 71 | 211 | 1.0 | 6.0 | 0.00 | 0.00 | 0.00 | 22 | 1006.9 |
| 20260506200538 | 71 | 305 | 1.0 | 6.0 | 0.00 | 0.00 | 0.00 | 25 | 1007.0 |
| 20260506200108 | 71 | 125 | 3.0 | 8.0 | 0.00 | 0.00 | 0.00 | 23 | 1007.0 |
| 20260506195539 | 71 | 0 | 3.0 | 8.0 | 0.00 | 0.00 | 0.00 | 22 | 1007.0 |
| 20260506195041 | 71 | 96 | 1.0 | 5.0 | 0.00 | 0.00 | 0.00 | 23 | 1007.0 |
| 20260506194606 | 70 | 236 | 2.0 | 7.0 | 0.00 | 0.00 | 0.00 | 25 | 1007.0 |
| 20260506194040 | 70 | 208 | 2.0 | 7.0 | 0.00 | 0.00 | 0.00 | 28 | 1007.1 |
| 20260506193543 | 69 | 160 | 2.0 | 7.0 | 0.00 | 0.00 | 0.00 | 25 | 1007.2 |
| 20260506193049 | 68 | 165 | 1.0 | 5.0 | 0.00 | 0.00 | 0.00 | 28 | 1007.3 |
| 20260506192539 | 67 | 343 | 2.0 | 7.0 | 0.00 | 0.00 | 0.00 | 25 | 1007.3 |
| 20260506192043 | 67 | 55 | 2.0 | 8.0 | 0.00 | 0.00 | 0.00 | 26 | 1007.3 |
| 20260506191551 | 67 | 57 | 3.0 | 9.0 | 0.00 | 0.00 | 0.00 | 29 | 1007.4 |
| 20260506191039 | 68 | 29 | 4.0 | 9.0 | 0.00 | 0.00 | 0.00 | 26 | 1007.4 |
| 20260506190538 | 69 | 87 | 3.0 | 9.0 | 0.00 | 0.00 | 0.00 | 28 | 1007.5 |
| 20260506190050 | 68 | 176 | 2.0 | 8.0 | 0.00 | 0.00 | 0.00 | 28 | 1007.6 |
| 20260506185538 | 68 | 117 | 3.0 | 9.0 | 0.00 | 0.00 | 0.00 | 26 | 1007.6 |
| 20260506185043 | 67 | 136 | 3.0 | 9.0 | 0.00 | 0.00 | 0.00 | 28 | 1007.6 |
| 20260506184559 | 67 | 157 | 3.0 | 10.0 | 0.00 | 0.00 | 0.00 | 27 | 1007.7 |
| 20260506184040 | 66 | 168 | 4.0 | 12.0 | 0.00 | 0.00 | 0.00 | 28 | 1007.7 |
| 20260506183539 | 66 | 173 | 4.0 | 12.0 | 0.00 | 0.00 | 0.00 | 28 | 1007.8 |
| 20260506183103 | 66 | 113 | 6.0 | 10.0 | 0.00 | 0.00 | 0.00 | 27 | 1007.7 |
| 20260506182539 | 66 | 155 | 3.0 | 12.0 | 0.00 | 0.00 | 0.00 | 30 | 1007.7 |
| 20260506182039 | 66 | 148 | 4.0 | 12.0 | 0.00 | 0.00 | 0.00 | 29 | 1007.8 |
| 20260506181559 | 65 | 160 | 5.0 | 11.0 | 0.00 | 0.00 | 0.00 | 28 | 1007.9 |
| 20260506181039 | 65 | 137 | 4.0 | 9.0 | 0.00 | 0.00 | 0.00 | 29 | 1008.0 |
| 20260506180541 | 65 | 182 | 4.0 | 9.0 | 0.00 | 0.00 | 0.00 | 31 | 1008.0 |
| 20260506180048 | 65 | 149 | 3.0 | 10.0 | 0.00 | 0.00 | 0.00 | 33 | 1008.0 |
| 20260506175542 | 64 | 150 | 4.0 | 10.0 | 0.00 | 0.00 | 0.00 | 28 | 1008.0 |
| 20260506175040 | 64 | 146 | 3.0 | 9.0 | 0.00 | 0.00 | 0.00 | 30 | 1008.1 |
| 20260506174551 | 63 | 109 | 3.0 | 9.0 | 0.00 | 0.00 | 0.00 | 32 | 1008.2 |
| 20260506174039 | 63 | 100 | 5.0 | 10.0 | 0.00 | 0.00 | 0.00 | 30 | 1008.4 |
| 20260506173540 | 62 | 144 | 4.0 | 10.0 | 0.00 | 0.00 | 0.00 | 31 | 1008.4 |
| 20260506173054 | 62 | 139 | 4.0 | 11.0 | 0.00 | 0.00 | 0.00 | 33 | 1008.6 |
| 20260506172539 | 62 | 157 | 5.0 | 11.0 | 0.00 | 0.00 | 0.00 | 31 | 1008.6 |
| 20260506172038 | 61 | 170 | 3.0 | 11.0 | 0.00 | 0.00 | 0.00 | 34 | 1008.7 |
| 20260506171552 | 60 | 145 | 4.0 | 11.0 | 0.00 | 0.00 | 0.00 | 31 | 1008.8 |
| 20260506171039 | 60 | 134 | 5.0 | 11.0 | 0.00 | 0.00 | 0.00 | 34 | 1008.9 |
| 20260506170540 | 59 | 175 | 4.0 | 9.0 | 0.00 | 0.00 | 0.00 | 34 | 1009.0 |
| 20260506170054 | 59 | 132 | 5.0 | 9.0 | 0.00 | 0.00 | 0.00 | 32 | 1009.0 |
| 20260506165539 | 58 | 129 | 4.0 | 12.0 | 0.00 | 0.00 | 0.00 | 33 | 1009.0 |
| 20260506165039 | 58 | 194 | 4.0 | 12.0 | 0.00 | 0.00 | 0.00 | 35 | 1009.2 |
| 20260506164552 | 58 | 190 | 4.0 | 9.0 | 0.00 | 0.00 | 0.00 | 34 | 1009.3 |
| 20260506164039 | 57 | 129 | 3.0 | 12.0 | 0.00 | 0.00 | 0.00 | 36 | 1009.3 |
| 20260506163538 | 56 | 192 | 5.0 | 12.0 | 0.00 | 0.00 | 0.00 | 34 | 1009.4 |
| 20260506163054 | 56 | 126 | 5.0 | 11.0 | 0.00 | 0.00 | 0.00 | 35 | 1009.4 |
| 20260506162538 | 55 | 172 | 6.0 | 11.0 | 0.00 | 0.00 | 0.00 | 34 | 1009.5 |
| 20260506162040 | 55 | 155 | 4.0 | 9.0 | 0.00 | 0.00 | 0.00 | 39 | 1009.4 |
| 20260506161603 | 54 | 167 | 4.0 | 9.0 | 0.00 | 0.00 | 0.00 | 37 | 1009.6 |
| 20260506161038 | 54 | 134 | 4.0 | 10.0 | 0.00 | 0.00 | 0.00 | 38 | 1009.6 |
| 20260506160538 | 53 | 130 | 4.0 | 11.0 | 0.00 | 0.00 | 0.00 | 38 | 1009.8 |
| 20260506160056 | 53 | 144 | 5.0 | 11.0 | 0.00 | 0.00 | 0.00 | 39 | 1009.8 |
| 20260506155538 | 52 | 190 | 5.0 | 10.0 | 0.00 | 0.00 | 0.00 | 40 | 1009.9 |
| 20260506155041 | 52 | 161 | 4.0 | 8.0 | 0.00 | 0.00 | 0.00 | 43 | 1010.0 |
| 20260506154556 | 51 | 191 | 3.0 | 8.0 | 0.00 | 0.00 | 0.00 | 41 | 1010.0 |
| 20260506154041 | 51 | 192 | 3.0 | 7.0 | 0.00 | 0.00 | 0.00 | 43 | 1010.0 |
| 20260506153539 | 50 | 156 | 4.0 | 8.0 | 0.00 | 0.00 | 0.00 | 42 | 1010.1 |
| 20260506153051 | 49 | 152 | 3.0 | 8.0 | 0.00 | 0.00 | 0.00 | 45 | 1010.2 |
| 20260506152539 | 48 | 163 | 2.0 | 8.0 | 0.00 | 0.00 | 0.00 | 45 | 1010.2 |
| 20260506152043 | 48 | 191 | 4.0 | 8.0 | 0.00 | 0.00 | 0.00 | 44 | 1010.2 |
| 20260506151606 | 47 | 198 | 4.0 | 9.0 | 0.00 | 0.00 | 0.00 | 46 | 1010.4 |
| 20260506151038 | 47 | 166 | 2.0 | 9.0 | 0.00 | 0.00 | 0.00 | 46 | 1010.4 |
| 20260506150538 | 46 | 169 | 3.0 | 7.0 | 0.00 | 0.00 | 0.00 | 47 | 1010.5 |
| 20260506150053 | 45 | 170 | 4.0 | 7.0 | 0.00 | 0.00 | 0.00 | 48 | 1010.6 |
| 20260506145539 | 45 | 187 | 2.0 | 7.0 | 0.00 | 0.00 | 0.00 | 49 | 1010.7 |
| 20260506145039 | 44 | 217 | 2.0 | 7.0 | 0.00 | 0.00 | 0.00 | 50 | 1010.7 |
| 20260506144552 | 43 | 187 | 3.0 | 7.0 | 0.00 | 0.00 | 0.00 | 50 | 1010.7 |
| 20260506144042 | 42 | 159 | 3.0 | 6.0 | 0.00 | 0.00 | 0.00 | 52 | 1010.9 |
| 20260506143540 | 42 | 184 | 2.0 | 6.0 | 0.00 | 0.00 | 0.00 | 52 | 1010.9 |
| 20260506143053 | 41 | 0 | 3.0 | 6.0 | 0.00 | 0.00 | 0.00 | 53 | 1010.9 |
| 20260506142538 | 40 | 167 | 3.0 | 6.0 | 0.00 | 0.00 | 0.00 | 54 | 1011.0 |
| 20260506142038 | 39 | 191 | 2.0 | 6.0 | 0.00 | 0.00 | 0.00 | 55 | 1011.0 |
| 20260506141554 | 39 | 167 | 3.0 | 6.0 | 0.00 | 0.00 | 0.00 | 55 | 1011.0 |
| 20260506141039 | 38 | 195 | 2.0 | 6.0 | 0.00 | 0.00 | 0.00 | 56 | 1011.2 |
| 20260506140542 | 38 | 204 | 2.0 | 6.0 | 0.00 | 0.00 | 0.00 | 57 | 1011.2 |
| 20260506140105 | 37 | 181 | 3.0 | 6.0 | 0.00 | 0.00 | 0.00 | 58 | 1011.4 |
| 20260506135540 | 36 | 180 | 3.0 | 6.0 | 0.00 | 0.00 | 0.00 | 58 | 1011.4 |
| 20260506135039 | 36 | 207 | 3.0 | 6.0 | 0.00 | 0.00 | 0.00 | 59 | 1011.6 |
| 20260506134558 | 35 | 184 | 2.0 | 7.0 | 0.00 | 0.00 | 0.00 | 60 | 1011.6 |
| 20260506134039 | 35 | 192 | 3.0 | 7.0 | 0.00 | 0.00 | 0.00 | 62 | 1011.7 |
| 20260506133540 | 34 | 163 | 1.0 | 6.0 | 0.00 | 0.00 | 0.00 | 63 | 1011.6 |
| 20260506133054 | 33 | 221 | 2.0 | 6.0 | 0.00 | 0.00 | 0.00 | 64 | 1011.7 |
| 20260506132540 | 33 | 163 | 2.0 | 6.0 | 0.00 | 0.00 | 0.00 | 64 | 1011.8 |
| 20260506132043 | 32 | 183 | 2.0 | 5.0 | 0.00 | 0.00 | 0.00 | 65 | 1011.7 |
| 20260506131554 | 31 | 173 | 2.0 | 5.0 | 0.00 | 0.00 | 0.00 | 67 | 1011.7 |
| 20260506131040 | 31 | 185 | 2.0 | 4.0 | 0.00 | 0.00 | 0.00 | 67 | 1011.7 |
| 20260506130540 | 30 | 182 | 0.0 | 2.0 | 0.00 | 0.00 | 0.00 | 68 | 1011.6 |
| 20260506130108 | 29 | 0 | 0.0 | 2.0 | 0.00 | 0.00 | 0.00 | 68 | 1011.5 |
| 20260506125539 | 29 | 182 | 0.0 | 2.0 | 0.00 | 0.00 | 0.00 | 68 | 1011.5 |
| 20260506125040 | 28 | 182 | 0.0 | 2.0 | 0.00 | 0.00 | 0.00 | 68 | 1011.6 |
| 20260506124553 | 28 | 0 | 0.0 | 2.0 | 0.00 | 0.00 | 0.00 | 68 | 1011.7 |
| 20260506124038 | 28 | 0 | 0.0 | 1.0 | 0.00 | 0.00 | 0.00 | 67 | 1011.6 |
| 20260506123539 | 28 | 0 | 0.0 | 0.0 | 0.00 | 0.00 | 0.00 | 67 | 1011.7 |
| 20260506123053 | 28 | 0 | 0.0 | 1.0 | 0.00 | 0.00 | 0.00 | 67 | 1011.6 |
| 20260506122539 | 28 | 0 | 0.0 | 1.0 | 0.00 | 0.00 | 0.00 | 67 | 1011.6 |
| 20260506122040 | 28 | 0 | 0.0 | 0.0 | 0.00 | 0.00 | 0.00 | 66 | 1011.7 |
| 20260506121551 | 28 | 0 | 0.0 | 1.0 | 0.00 | 0.00 | 0.00 | 66 | 1011.8 |
| 20260506121039 | 28 | 0 | 0.0 | 1.0 | 0.00 | 0.00 | 0.00 | 66 | 1011.9 |
| 20260506120539 | 28 | 0 | 0.0 | 1.0 | 0.00 | 0.00 | 0.00 | 65 | 1011.9 |
| 20260506120057 | 28 | 0 | 0.0 | 0.0 | 0.00 | 0.00 | 0.00 | 65 | 1012.0 |
| 20260506115540 | 28 | 0 | 0.0 | 0.0 | 0.00 | 0.00 | 0.00 | 65 | 1012.0 |
| 20260506115039 | 29 | 0 | 0.0 | 0.0 | 0.00 | 0.00 | 0.00 | 64 | 1012.1 |
| 20260506114555 | 29 | 0 | 0.0 | 1.0 | 0.00 | 0.00 | 0.00 | 64 | 1012.2 |
| 20260506114039 | 29 | 0 | 0.0 | 3.0 | 0.00 | 0.00 | 0.00 | 64 | 1012.3 |
| 20260506113538 | 29 | 0 | 0.0 | 3.0 | 0.00 | 0.00 | 0.00 | 64 | 1012.3 |
| 20260506113104 | 29 | 0 | 1.0 | 3.0 | 0.00 | 0.00 | 0.00 | 63 | 1012.4 |
| 20260506112539 | 29 | 182 | 0.0 | 2.0 | 0.00 | 0.00 | 0.00 | 63 | 1012.4 |
| 20260506112038 | 30 | 182 | 0.0 | 2.0 | 0.00 | 0.00 | 0.00 | 62 | 1012.5 |
| 20260506111546 | 30 | 0 | 0.0 | 3.0 | 0.00 | 0.00 | 0.00 | 61 | 1012.5 |
| 20260506111039 | 30 | 0 | 0.0 | 3.0 | 0.00 | 0.00 | 0.00 | 61 | 1012.7 |
| 20260506110539 | 30 | 182 | 1.0 | 3.0 | 0.00 | 0.00 | 0.00 | 61 | 1012.7 |
| 20260506110100 | 30 | 182 | 0.0 | 3.0 | 0.00 | 0.00 | 0.00 | 60 | 1012.8 |
| 20260506105539 | 30 | 0 | 0.0 | 4.0 | 0.00 | 0.00 | 0.00 | 60 | 1012.7 |
| 20260506105039 | 31 | 182 | 1.0 | 4.0 | 0.00 | 0.00 | 0.00 | 60 | 1012.7 |
| 20260506104548 | 31 | 163 | 1.0 | 4.0 | 0.00 | 0.00 | 0.00 | 59 | 1012.9 |
| 20260506104039 | 31 | 158 | 1.0 | 3.0 | 0.00 | 0.00 | 0.00 | 59 | 1012.9 |
| 20260506103539 | 31 | 174 | 1.0 | 3.0 | 0.00 | 0.00 | 0.00 | 58 | 1012.9 |
| 20260506103048 | 31 | 0 | 0.0 | 3.0 | 0.00 | 0.00 | 0.00 | 58 | 1013.0 |
| 20260506102539 | 32 | 202 | 1.0 | 6.0 | 0.00 | 0.00 | 0.00 | 58 | 1013.1 |
| 20260506102038 | 32 | 196 | 2.0 | 6.0 | 0.00 | 0.00 | 0.00 | 58 | 1013.2 |
| 20260506101555 | 32 | 167 | 1.0 | 5.0 | 0.00 | 0.00 | 0.00 | 57 | 1013.2 |
| 20260506101039 | 32 | 150 | 1.0 | 4.0 | 0.00 | 0.00 | 0.00 | 57 | 1013.2 |
| 20260506100539 | 32 | 171 | 1.0 | 4.0 | 0.00 | 0.00 | 0.00 | 56 | 1013.3 |
| 20260506100051 | 32 | 165 | 1.0 | 7.0 | 0.00 | 0.00 | 0.00 | 56 | 1013.5 |
| 20260506095543 | 33 | 174 | 1.0 | 9.0 | 0.00 | 0.00 | 0.00 | 56 | 1013.6 |
| 20260506095039 | 33 | 178 | 3.0 | 9.0 | 0.00 | 0.00 | 0.00 | 55 | 1013.6 |
| 20260506094557 | 33 | 169 | 2.0 | 8.0 | 0.00 | 0.00 | 0.00 | 55 | 1013.7 |
| 20260506094038 | 33 | 173 | 3.0 | 8.0 | 0.00 | 0.00 | 0.00 | 55 | 1013.8 |
| 20260506093542 | 33 | 140 | 3.0 | 8.0 | 0.00 | 0.00 | 0.00 | 55 | 1014.0 |
| 20260506093054 | 33 | 163 | 3.0 | 7.0 | 0.00 | 0.00 | 0.00 | 55 | 1014.0 |
| 20260506092542 | 33 | 176 | 3.0 | 8.0 | 0.00 | 0.00 | 0.00 | 55 | 1013.9 |
| 20260506092039 | 33 | 161 | 2.0 | 8.0 | 0.00 | 0.00 | 0.00 | 55 | 1014.2 |
| 20260506091549 | 33 | 169 | 3.0 | 10.0 | 0.00 | 0.00 | 0.00 | 55 | 1014.2 |
| 20260506091043 | 33 | 175 | 4.0 | 10.0 | 0.00 | 0.00 | 0.00 | 54 | 1014.2 |
| 20260506090541 | 33 | 169 | 3.0 | 9.0 | 0.00 | 0.00 | 0.00 | 54 | 1014.4 |
| 20260506090048 | 33 | 163 | 2.0 | 9.0 | 0.00 | 0.00 | 0.00 | 54 | 1014.4 |
| 20260506085538 | 33 | 0 | 2.0 | 8.0 | 0.00 | 0.00 | 0.00 | 54 | 1014.5 |
| 20260506085039 | 33 | 165 | 4.0 | 8.0 | 0.00 | 0.00 | 0.00 | 53 | 1014.5 |
| 20260506084551 | 33 | 163 | 4.0 | 7.0 | 0.00 | 0.00 | 0.00 | 53 | 1014.5 |
| 20260506084039 | 33 | 155 | 2.0 | 7.0 | 0.00 | 0.00 | 0.00 | 53 | 1014.6 |
| 20260506083541 | 34 | 169 | 1.0 | 8.0 | 0.00 | 0.00 | 0.00 | 53 | 1014.7 |
| 20260506083048 | 34 | 171 | 3.0 | 9.0 | 0.00 | 0.00 | 0.00 | 53 | 1014.6 |
| 20260506082542 | 34 | 163 | 4.0 | 9.0 | 0.00 | 0.00 | 0.00 | 53 | 1014.7 |
| 20260506082044 | 34 | 166 | 3.0 | 8.0 | 0.00 | 0.00 | 0.00 | 53 | 1014.8 |
| 20260506081548 | 34 | 142 | 2.0 | 8.0 | 0.00 | 0.00 | 0.00 | 52 | 1014.9 |
| 20260506081039 | 34 | 175 | 3.0 | 7.0 | 0.00 | 0.00 | 0.00 | 52 | 1015.0 |
| 20260506080539 | 34 | 179 | 2.0 | 7.0 | 0.00 | 0.00 | 0.00 | 52 | 1015.0 |
| 20260506073048 | 35 | 123 | 1.0 | 6.0 | 0.00 | 0.00 | 0.00 | 49 | 1015.6 |
| 20260506072539 | 35 | 163 | 1.0 | 8.0 | 0.00 | 0.00 | 0.00 | 49 | 1015.6 |
| 20260506072041 | 35 | 161 | 3.0 | 8.0 | 0.00 | 0.00 | 0.00 | 49 | 1015.6 |
| 20260506071604 | 35 | 140 | 2.0 | 8.0 | 0.00 | 0.00 | 0.00 | 49 | 1015.7 |
| 20260506071039 | 35 | 154 | 3.0 | 8.0 | 0.00 | 0.00 | 0.00 | 49 | 1015.8 |
| 20260506070539 | 35 | 159 | 4.0 | 9.0 | 0.00 | 0.00 | 0.00 | 49 | 1015.8 |
| 20260506062039 | 35 | 160 | 3.0 | 10.0 | 0.00 | 0.00 | 0.00 | 51 | 1016.3 |
| 20260506061551 | 35 | 139 | 3.0 | 10.0 | 0.00 | 0.00 | 0.00 | 52 | 1016.4 |
| 20260506061040 | 35 | 113 | 3.0 | 9.0 | 0.00 | 0.00 | 0.00 | 53 | 1016.4 |
| 20260506060539 | 34 | 155 | 3.0 | 9.0 | 0.00 | 0.00 | 0.00 | 54 | 1016.4 |
| 20260506051039 | 33 | 117 | 2.0 | 5.0 | 0.00 | 0.00 | 0.00 | 54 | 1016.9 |
| 20260506050539 | 33 | 132 | 2.0 | 4.0 | 0.00 | 0.00 | 0.00 | 54 | 1017.1 |
| 20260506045039 | 34 | 118 | 1.0 | 7.0 | 0.00 | 0.00 | 0.00 | 52 | 1017.1 |
| 20260506044553 | 34 | 115 | 2.0 | 7.0 | 0.00 | 0.00 | 0.00 | 52 | 1017.1 |
| 20260506044039 | 34 | 111 | 2.0 | 8.0 | 0.00 | 0.00 | 0.00 | 51 | 1017.2 |
| 20260506043543 | 34 | 126 | 2.0 | 8.0 | 0.00 | 0.00 | 0.00 | 51 | 1017.1 |
| 20260506043047 | 34 | 110 | 3.0 | 8.0 | 0.00 | 0.00 | 0.00 | 51 | 1017.1 |
| 20260506042540 | 34 | 70 | 3.0 | 7.0 | 0.00 | 0.00 | 0.00 | 51 | 1017.1 |
| 20260506042040 | 34 | 113 | 1.0 | 4.0 | 0.00 | 0.00 | 0.00 | 50 | 1017.3 |
| 20260506041600 | 35 | 103 | 2.0 | 4.0 | 0.00 | 0.00 | 0.00 | 50 | 1017.3 |
| 20260506041039 | 35 | 109 | 1.0 | 4.0 | 0.00 | 0.00 | 0.00 | 49 | 1017.3 |